FW2504 Weather Reports


time (UTC)temp
C
wind
direction
speed
KPH
gust
KPH
rain 1hr
cm
rain 24hr
cm
rain mn
cm
humidity
%
barometer
mb
20260505170038 16 278 20.9 41.8 0.00 0.00 0.00 70 1014.2
20260505164535 15 280 20.9 37.0 0.00 0.00 0.00 71 1014.2
20260505163032 15 275 20.9 41.8 0.00 0.00 0.00 72 1014.1
20260505161606 15 275 19.3 40.2 0.00 0.00 0.00 74 1014.2
20260505153035 14 253 16.1 35.4 0.00 0.00 0.00 76 1014.2
20260505151641 14 249 16.1 40.2 0.00 0.00 0.00 77 1014.0
20260505150140 14 252 14.5 38.6 0.00 0.00 0.00 77 1014.0
20260505124608 12 259 12.9 35.4 0.00 0.00 0.00 82 1012.7
20260505123037 12 263 16.1 32.2 0.00 0.00 0.00 81 1012.6
20260505121608 13 262 14.5 35.4 0.00 0.00 0.00 81 1012.6
20260505120031 13 255 12.9 24.1 0.00 0.00 0.00 81 1012.4
20260505114534 13 259 9.7 20.9 0.00 0.00 0.00 81 1012.4
20260505111532 13 256 9.7 17.7 0.00 0.00 0.00 79 1012.3
20260505101539 13 250 11.3 29.0 0.00 0.00 0.00 78 1012.0
20260505093032 15 254 12.9 27.4 0.00 0.00 0.00 76 1011.8
20260505091530 15 245 11.3 27.4 0.00 0.00 0.00 75 1011.7
20260505090030 15 248 11.3 22.5 0.00 0.00 0.00 74 1011.5
20260505084536 16 247 11.3 27.4 0.00 0.00 0.00 74 1011.5
20260505083029 16 248 11.3 29.0 0.00 0.00 0.00 74 1011.5
20260505081530 16 249 11.3 25.7 0.00 0.00 0.00 74 1011.3
20260505080030 16 240 11.3 29.0 0.00 0.00 0.00 74 1011.3
20260505074530 17 245 12.9 30.6 0.00 0.00 0.00 73 1011.2
20260505073033 17 242 12.9 27.4 0.00 0.00 0.00 73 1011.1
20260505071543 17 247 12.9 24.1 0.00 0.00 0.00 72 1011.0
20260505070031 17 245 11.3 24.1 0.00 0.00 0.00 70 1010.9
20260505064608 18 247 11.3 24.1 0.00 0.00 0.00 70 1010.8
20260505063034 18 255 12.9 24.1 0.00 0.00 0.00 69 1010.7
20260505061535 18 258 11.3 24.1 0.00 0.00 0.00 68 1010.7
20260505060142 18 259 9.7 20.9 0.00 0.00 0.00 67 1010.6
20260505054607 18 247 11.3 29.0 0.00 0.00 0.00 66 1010.6
20260505053031 18 252 11.3 24.1 0.00 0.00 0.00 65 1010.6
20260505051530 18 254 9.7 22.5 0.00 0.00 0.00 63 1010.5
20260505040048 20 271 8.0 19.3 0.00 0.00 0.00 59 1009.7
20260505034534 20 273 9.7 20.9 0.00 0.00 0.00 58 1009.5
20260505033107 20 266 9.7 20.9 0.00 0.00 0.00 58 1009.3
20260505031608 20 258 8.0 17.7 0.00 0.00 0.00 57 1009.2
20260505030037 20 263 6.4 16.1 0.00 0.00 0.00 56 1009.0
20260505024531 21 247 8.0 22.5 0.00 0.00 0.00 55 1008.9
20260505023030 21 237 8.0 20.9 0.00 0.00 0.00 54 1009.0
20260505021531 22 232 8.0 16.1 0.00 0.00 0.00 53 1009.0
20260505020035 22 229 6.4 22.5 0.00 0.00 0.00 52 1009.0
20260505014532 23 218 6.4 25.7 0.00 0.00 0.00 51 1009.0
20260505013031 23 233 8.0 29.0 0.00 0.00 0.00 51 1008.9
20260505010035 23 243 9.7 27.4 0.00 0.00 0.00 51 1008.8
20260505004529 23 241 14.5 37.0 0.00 0.00 0.00 49 1008.8
20260505003032 23 252 17.7 37.0 0.00 0.00 0.00 48 1008.7
20260505001535 24 259 19.3 40.2 0.00 0.00 0.00 46 1008.5
20260505000036 24 264 19.3 38.6 0.00 0.00 0.00 46 1008.5
20260504234532 25 272 19.3 38.6 0.00 0.00 0.00 45 1008.5
20260504233037 25 279 19.3 37.0 0.00 0.00 0.00 45 1008.4
20260504231535 25 279 20.9 38.6 0.00 0.00 0.00 45 1008.4
20260504230037 25 276 19.3 37.0 0.00 0.00 0.00 45 1008.5
20260504224537 25 280 19.3 40.2 0.00 0.00 0.00 45 1008.7
20260504223031 25 283 17.7 37.0 0.00 0.00 0.00 46 1008.9
20260504221532 25 279 17.7 45.1 0.00 0.00 0.00 46 1009.0
20260504220028 25 279 19.3 35.4 0.00 0.00 0.00 46 1009.0
20260504214531 24 280 17.7 38.6 0.00 0.00 0.00 46 1009.1
20260504213030 24 280 20.9 43.5 0.00 0.00 0.00 46 1009.3
20260504211649 25 280 17.7 40.2 0.00 0.00 0.00 46 1009.6
20260504204532 25 273 12.9 27.4 0.00 0.00 0.00 45 1009.9
20260504203031 25 265 9.7 29.0 0.00 0.00 0.00 45 1010.1
20260504200105 23 265 8.0 22.5 0.00 0.00 0.00 47 1010.4
20260504194532 23 273 11.3 27.4 0.00 0.00 0.00 49 1010.4
20260504191646 22 269 14.5 32.2 0.00 0.00 0.00 50 1010.7
20260504190038 22 277 12.9 30.6 0.00 0.00 0.00 52 1010.8
20260504184533 22 266 8.0 22.5 0.00 0.00 0.00 52 1011.0
20260504183042 22 286 6.4 19.3 0.00 0.00 0.00 53 1011.0
20260504181530 22 272 6.4 17.7 0.00 0.00 0.00 53 1011.1
20260504180037 22 269 4.8 14.5 0.00 0.00 0.00 55 1011.1
20260504174532 22 260 11.3 27.4 0.00 0.00 0.00 55 1011.0
20260504173107 21 268 11.3 20.9 0.00 0.00 0.00 55 1011.0
20260504171531 21 272 11.3 25.7 0.00 0.00 0.00 57 1011.0